Weather History for KHYS - May, 2013

Change the Weather History Date:

Tuesday, May 7, 2013

  Actual Average Record
Temperature  
Mean Temperature 62 °F -  
Max Temperature 73 °F 70 °F 96 °F (2014)
Min Temperature 51 °F 46 °F 37 °F (1999)
Degree Days  
Heating Degree Days 3    
Growing Degree Days 12 (Base 50)    
Moisture  
Dew Point 52 °F    
Average Humidity 76    
Maximum Humidity 94    
Minimum Humidity 50    
Precipitation  
Precipitation 0.56 in - - ()
Sea Level Pressure  
Sea Level Pressure 29.99 in    
Wind  
Wind Speed 11 mph (SE)    
Max Wind Speed 25 mph    
Max Gust Speed 34 mph    
Visibility 10 miles    
Events Thunderstorm    
Averages and records for this station are not official NWS values.
T = Trace of Precipitation, MM = Missing Value Source: NWS Daily Summary

Daily Weather History Graph

Daily Weather History Graph

Search for Another Location

Airport or City:

Trip Planner

Search our weather history database for the weather conditions in past years. The results will help you decide how hot, cold, wet, or windy it might be!

Date:

Astronomy

May. 07, 2013 Rise Set
Actual Time 6:32 AM CDT 8:35 PM CDT
Civil Twilight 6:02 AM CDT 9:04 PM CDT
Nautical Twilight 5:27 AM CDT 9:40 PM CDT
Astronomical Twilight 4:48 AM CDT 10:19 PM CDT
Moon 5:06 AM CDT (5/7) 6:37 PM CDT (5/7)
Length of Visible Light 15h 01m
Length of Day
14h 03m
Waning Crescent, 5% of the Moon is Illuminated
May 7
Waning Crescent
May 9
New
May 17
First Quarter
May 24
Full
May 31
Last Quarter

Hourly Weather History & Observations

Time (CDT) Temp. Dew Point Humidity Pressure Visibility Wind Dir Wind Speed Gust Speed Precip Events Conditions
12:15 AM 51.8 °F 44.6 °F 76% 30.06 in 10.0 mi SE 6.9 mph - N/A   Partly Cloudy
12:35 AM 53.6 °F 46.4 °F 77% 30.05 in 10.0 mi ESE 6.9 mph - N/A   Clear
12:55 AM 53.6 °F 46.4 °F 77% 30.06 in 10.0 mi SE 8.1 mph - N/A   Clear
1:15 AM 55.4 °F 46.4 °F 72% 30.06 in 10.0 mi SE 9.2 mph - N/A   Clear
1:35 AM 55.4 °F 46.4 °F 72% 30.06 in 10.0 mi SE 8.1 mph - N/A   Clear
1:55 AM 53.6 °F 46.4 °F 77% 30.06 in 10.0 mi ESE 10.4 mph - N/A   Partly Cloudy
2:15 AM 53.6 °F 48.2 °F 82% 30.06 in 10.0 mi ESE 9.2 mph - N/A   Mostly Cloudy
2:35 AM 53.6 °F 48.2 °F 82% 30.05 in 10.0 mi ESE 9.2 mph - N/A   Overcast
2:55 AM 53.6 °F 48.2 °F 82% 30.05 in 10.0 mi SE 10.4 mph - N/A   Overcast
3:15 AM 53.6 °F 48.2 °F 82% 30.05 in 10.0 mi SE 6.9 mph - N/A   Overcast
3:35 AM 53.6 °F 48.2 °F 82% 30.05 in 10.0 mi SE 8.1 mph - N/A   Overcast
3:55 AM 53.6 °F 50.0 °F 88% 30.06 in 10.0 mi SSE 8.1 mph - N/A   Overcast
4:15 AM 53.6 °F 50.0 °F 88% 30.06 in 10.0 mi SE 5.8 mph - 0.01 in   Overcast
4:35 AM 53.6 °F 50.0 °F 88% 30.06 in 10.0 mi SE 5.8 mph - 0.01 in   Overcast
5:15 AM 53.6 °F 51.8 °F 94% 30.06 in 5.0 mi SE 4.6 mph - 0.02 in   Overcast
5:35 AM 53.6 °F 50.0 °F 88% 30.05 in 5.0 mi ESE 6.9 mph - 0.03 in   Overcast
5:55 AM 53.6 °F 50.0 °F 88% 30.05 in 10.0 mi ESE 3.5 mph - 0.04 in   Overcast
6:15 AM 53.6 °F 50.0 °F 88% 30.05 in 10.0 mi ESE 4.6 mph - N/A   Overcast
6:35 AM 53.6 °F 50.0 °F 88% 30.05 in 10.0 mi SSE 3.5 mph - N/A   Overcast
6:55 AM 53.6 °F 51.8 °F 94% 30.05 in 10.0 mi SSE 3.5 mph - N/A   Overcast
7:15 AM 53.6 °F 51.8 °F 94% 30.05 in 10.0 mi SE 4.6 mph - N/A   Overcast
7:35 AM 53.6 °F 51.8 °F 94% 30.05 in 10.0 mi SSE 4.6 mph - N/A   Overcast
7:55 AM 53.6 °F 51.8 °F 94% 30.05 in 10.0 mi SE 5.8 mph - N/A   Overcast
8:15 AM 53.6 °F 51.8 °F 94% 30.06 in 10.0 mi South 6.9 mph - N/A   Overcast
8:35 AM 55.4 °F 51.8 °F 88% 30.06 in 10.0 mi SSE 5.8 mph - N/A   Overcast
8:55 AM 55.4 °F 51.8 °F 88% 30.06 in 10.0 mi SSE 6.9 mph - N/A   Overcast
9:15 AM 55.4 °F 51.8 °F 88% 30.05 in 10.0 mi SSE 9.2 mph - N/A   Overcast
9:35 AM 57.2 °F 51.8 °F 82% 30.05 in 10.0 mi SSE 10.4 mph - N/A   Overcast
9:55 AM 57.2 °F 53.6 °F 88% 30.05 in 10.0 mi South 16.1 mph - N/A   Overcast
10:15 AM 59.0 °F 53.6 °F 82% 30.05 in 10.0 mi SSW 15.0 mph 24.2 mph N/A   Overcast
10:35 AM 57.2 °F 51.8 °F 82% 30.05 in 8.0 mi South 12.7 mph - N/A   Overcast
10:55 AM 57.2 °F 53.6 °F 88% 30.05 in 10.0 mi South 11.5 mph - 0.02 in   Overcast
11:15 AM 57.2 °F 53.6 °F 88% 30.05 in 6.0 mi South 12.7 mph 19.6 mph 0.01 in   Overcast
11:35 AM 55.4 °F 53.6 °F 94% 30.04 in 9.0 mi South 10.4 mph - 0.06 in   Overcast
11:55 AM 55.4 °F 53.6 °F 94% 30.02 in 10.0 mi SE 12.7 mph - 0.07 in   Overcast
12:15 PM 57.2 °F 53.6 °F 88% 30.02 in 10.0 mi SE 13.8 mph - N/A   Overcast
12:35 PM 57.2 °F 55.4 °F 94% 30.02 in 10.0 mi SSE 12.7 mph - N/A   Overcast
12:55 PM 60.8 °F 55.4 °F 82% 30.01 in 10.0 mi SSE 16.1 mph - N/A   Overcast
1:15 PM 62.6 °F 57.2 °F 82% 30.00 in 10.0 mi SSE 18.4 mph - N/A   Mostly Cloudy
1:35 PM 64.4 °F 55.4 °F 73% 29.99 in 10.0 mi SSE 19.6 mph 25.3 mph N/A   Clear
1:55 PM 66.2 °F 55.4 °F 68% 29.98 in 10.0 mi SE 16.1 mph - N/A   Clear
2:15 PM 66.2 °F 55.4 °F 68% 29.98 in 10.0 mi SSE 17.3 mph 20.7 mph N/A   Scattered Clouds
2:35 PM 64.4 °F 53.6 °F 68% 29.98 in 10.0 mi SE 13.8 mph - N/A   Overcast
2:55 PM 66.2 °F 51.8 °F 60% 29.97 in 10.0 mi SSE 16.1 mph - N/A   Overcast
3:15 PM 66.2 °F 53.6 °F 64% 29.96 in 10.0 mi SSE 13.8 mph - N/A   Overcast
3:35 PM 68.0 °F 53.6 °F 60% 29.95 in 10.0 mi SE 19.6 mph - N/A   Overcast
3:55 PM 69.8 °F 53.6 °F 56% 29.93 in 10.0 mi SE 20.7 mph 24.2 mph N/A   Overcast
4:15 PM 69.8 °F 53.6 °F 56% 29.92 in 10.0 mi SE 19.6 mph - N/A   Overcast
4:35 PM 71.6 °F 53.6 °F 53% 29.91 in 10.0 mi SE 19.6 mph - N/A   Overcast
4:55 PM 69.8 °F 51.8 °F 53% 29.90 in 10.0 mi SSE 18.4 mph - N/A   Overcast
5:15 PM 71.6 °F 51.8 °F 50% 29.89 in 10.0 mi SSE 20.7 mph - N/A   Overcast
5:35 PM 73.4 °F 53.6 °F 50% 29.88 in 10.0 mi SSE 20.7 mph 31.1 mph N/A   Mostly Cloudy
5:55 PM 73.4 °F 53.6 °F 50% 29.87 in 10.0 mi SSE 24.2 mph 29.9 mph N/A   Partly Cloudy
6:15 PM 71.6 °F 51.8 °F 50% 29.87 in 10.0 mi SSE 19.6 mph 31.1 mph N/A   Partly Cloudy
6:35 PM 71.6 °F 53.6 °F 53% 29.87 in 10.0 mi SSE 20.7 mph 27.6 mph N/A   Scattered Clouds
6:55 PM 69.8 °F 53.6 °F 56% 29.86 in 10.0 mi SE 25.3 mph 29.9 mph N/A   Clear
7:15 PM 68.0 °F 53.6 °F 60% 29.84 in 10.0 mi SE 21.9 mph - N/A Thunderstorm Scattered Clouds
7:35 PM 66.2 °F 53.6 °F 64% 29.85 in 10.0 mi SE 24.2 mph - N/A   Mostly Cloudy
7:55 PM 66.2 °F 53.6 °F 64% 29.86 in 10.0 mi ESE 21.9 mph 25.3 mph N/A Thunderstorm Thunderstorm
8:15 PM 66.2 °F 53.6 °F 64% 29.88 in 10.0 mi SE 17.3 mph - N/A Thunderstorm Mostly Cloudy
8:35 PM 64.4 °F 53.6 °F 68% 29.88 in 10.0 mi SE 20.7 mph 27.6 mph N/A   Scattered Clouds
8:55 PM 64.4 °F 53.6 °F 68% 29.88 in 10.0 mi ESE 23.0 mph 27.6 mph N/A   Clear
9:15 PM 62.6 °F 53.6 °F 72% 29.86 in 10.0 mi SE 19.6 mph 28.8 mph N/A   Partly Cloudy
9:35 PM 62.6 °F 51.8 °F 68% 29.85 in 10.0 mi SE 25.3 mph 34.5 mph N/A   Partly Cloudy
9:55 PM 62.6 °F 53.6 °F 72% 29.86 in 10.0 mi SE 25.3 mph 32.2 mph N/A Thunderstorm Thunderstorm
10:15 PM 62.6 °F 53.6 °F 72% 29.94 in 10.0 mi North 20.7 mph 29.9 mph N/A Thunderstorm Thunderstorm
10:35 PM 62.6 °F 51.8 °F 68% 30.00 in 10.0 mi West 12.7 mph 34.5 mph 0.07 in Thunderstorm Thunderstorm
10:55 PM 59.0 °F 53.6 °F 82% 29.98 in 8.0 mi ENE 13.8 mph - 0.25 in Thunderstorm Thunderstorm
11:15 PM 57.2 °F 53.6 °F 88% 29.94 in 10.0 mi East 20.7 mph 24.2 mph 0.02 in Thunderstorm Mostly Cloudy
11:35 PM 57.2 °F 53.6 °F 88% 29.93 in 8.0 mi ESE 20.7 mph 24.2 mph 0.15 in Thunderstorm Thunderstorm
11:55 PM 57.2 °F 53.6 °F 88% 29.94 in 10.0 mi ESE 16.1 mph - 0.17 in   Overcast